H1 CPF 2 NER 2021 10 9 9 282 01 glonass116 H2 0907001 9116 36111 2021 10 9 0 0 0 2021 10 12 23 45 0 900 1 1 0 0 0 1 H9 10 0 59496 0.00000 0 -11373671.165 22347536.486 4647794.962 10 0 59496 900.00000 0 -10997542.977 21670528.560 7732046.646 10 0 59496 1800.00000 0 -10568712.601 20612003.338 10665979.589 10 0 59496 2700.00000 0 -10142988.068 19184744.669 13392551.334 10 0 59496 3600.00000 0 -9773615.686 17414305.235 15858754.781 10 0 59496 4500.00000 0 -9508851.416 15338119.863 18016651.616 10 0 59496 5400.00000 0 -9389756.534 13004133.467 19824305.811 10 0 59496 6300.00000 0 -9448311.241 10469000.547 21246598.991 10 0 59496 7200.00000 0 -9705926.274 7795931.204 22255911.929 10 0 59496 8100.00000 0 -10172415.650 5052273.130 22832659.237 10 0 59496 9000.00000 0 -10845474.121 2306929.953 22965667.263 10 0 59496 9900.00000 0 -11710681.560 -372276.976 22652388.199 10 0 59496 10800.00000 0 -12742034.357 -2921194.240 21898946.656 10 0 59496 11700.00000 0 -13902981.712 -5281762.625 20720017.996 10 0 59496 12600.00000 0 -15147923.535 -7404183.921 19138540.972 10 0 59496 13500.00000 0 -16424107.217 -9248739.130 17185270.261 10 0 59496 14400.00000 0 -17673843.841 -10787183.532 14898177.484 10 0 59496 15300.00000 0 -18836950.799 -12003661.672 12321712.283 10 0 59496 16200.00000 0 -19853318.237 -12895105.449 9505937.655 10 0 59496 17100.00000 0 -20665491.423 -13471100.103 6505556.250 10 0 59496 18000.00000 0 -21221160.255 -13753225.124 3378846.629 10 0 59496 18900.00000 0 -21475451.038 -13773899.162 186530.222 10 0 59496 19800.00000 0 -21392923.784 -13574778.847 -3009408.830 10 0 59496 20700.00000 0 -20949190.704 -13204780.074 -6146927.685 10 0 59496 21600.00000 0 -20132087.469 -12717806.169 -9165129.087 10 0 59496 22500.00000 0 -18942347.578 -12170279.536 -12005442.350 10 0 59496 23400.00000 0 -17393751.114 -11618581.478 -14612757.985 10 0 59496 24300.00000 0 -15512741.125 -11116508.550 -16936494.054 10 0 59496 25200.00000 0 -13337523.116 -10712852.883 -18931573.830 10 0 59496 26100.00000 0 -10916684.672 -10449208.484 -20559296.168 10 0 59496 27000.00000 0 -8307392.052 -10358095.845 -21788082.255 10 0 59496 27900.00000 0 -5573237.984 -10461483.745 -22594084.863 10 0 59496 28800.00000 0 -2781829.329 -10769770.408 -22961648.787 10 0 59496 29700.00000 0 -2213.794 -11281266.981 -22883614.000 10 0 59496 30600.00000 0 2697748.585 -11982205.373 -22361455.880 10 0 59496 31500.00000 0 5253961.050 -12847270.601 -21405259.749 10 0 59496 32400.00000 0 7608507.030 -13840635.992 -20033529.995 10 0 59496 33300.00000 0 9711808.928 -14917458.554 -18272836.939 10 0 59496 34200.00000 0 11524439.859 -16025772.498 -16157307.665 10 0 59496 35100.00000 0 13018513.743 -17108702.084 -13727969.917 10 0 59496 36000.00000 0 14178596.461 -18106901.330 -11031961.024 10 0 59496 36900.00000 0 15002100.619 -18961118.202 -8121616.604 10 0 59496 37800.00000 0 15499147.992 -19614775.389 -5053456.277 10 0 59496 38700.00000 0 15691906.068 -20016458.615 -1887085.838 10 0 59496 39600.00000 0 15613427.174 -20122207.003 1315962.641 10 0 59496 40500.00000 0 15306039.790 -19897508.104 4493429.953 10 0 59496 41400.00000 0 14819360.651 -19318912.455 7583544.356 10 0 59496 42300.00000 0 14208012.312 -18375198.512 10526227.281 10 0 59496 43200.00000 0 13529143.431 -17068037.783 13264266.095 10 0 59496 44100.00000 0 12839857.293 -15412131.060 15744430.517 10 0 59496 45000.00000 0 12194657.938 -13434809.109 17918510.464 10 0 59496 45900.00000 0 11643022.351 -11175113.685 19744254.895 10 0 59496 46800.00000 0 11227201.636 -8682396.605 21186193.371 10 0 59496 47700.00000 0 10980344.227 -6014494.880 22216324.442 10 0 59496 48600.00000 0 10925020.406 -3235557.520 22814657.800 10 0 59496 49500.00000 0 11072210.293 -413613.993 22969600.069 10 0 59496 50400.00000 0 11420797.868 2382014.863 22678177.074 10 0 59496 51300.00000 0 11957592.200 5083356.411 21946088.687 10 0 59496 52200.00000 0 12657874.905 7626367.263 20787595.413 10 0 59496 53100.00000 0 13486450.683 9953349.126 19225239.074 10 0 59496 54000.00000 0 14399156.710 12015099.949 17289403.041 10 0 59496 54900.00000 0 15344767.322 13772711.825 15017720.478 10 0 59496 55800.00000 0 16267213.781 15198941.770 12454341.981 10 0 59496 56700.00000 0 17108025.602 16279099.401 9649076.719 10 0 59496 57600.00000 0 17808890.512 17011415.710 6656423.669 10 0 59496 58500.00000 0 18314224.973 17406878.750 3534511.813 10 0 59496 59400.00000 0 18573646.723 17488544.465 343970.001 10 0 59496 60300.00000 0 18544244.770 17290352.880 -2853251.438 10 0 59496 61200.00000 0 18192550.830 16855500.581 -5995084.080 10 0 59496 62100.00000 0 17496128.712 16234439.067 -9020546.226 10 0 59496 63000.00000 0 16444714.220 15482584.086 -11870925.592 10 0 59496 63900.00000 0 15040857.137 14657833.141 -14490916.735 10 0 59496 64800.00000 0 13300037.639 13817996.146 -16829691.280 10 0 59496 65700.00000 0 11250251.544 13018247.625 -18841880.415 10 0 59496 66600.00000 0 8931080.954 12308707.717 -20488450.961 10 0 59496 67500.00000 0 6392288.181 11732253.570 -21737458.570 10 0 59496 68400.00000 0 3691990.544 11322652.897 -22564664.033 10 0 59496 69300.00000 0 894490.966 11103097.842 -22954001.253 10 0 59496 70200.00000 0 -1932146.594 11085200.521 -22897888.273 10 0 59496 71100.00000 0 -4718677.417 11268492.301 -22397375.573 10 0 59496 72000.00000 0 -7397305.966 11640447.924 -21462128.747 10 0 59496 72900.00000 0 -9904257.466 12177033.684 -20110245.684 10 0 59496 73800.00000 0 -12182185.389 12843757.026 -18367911.279 10 0 59496 74700.00000 0 -14182315.566 13597173.957 -16268895.752 10 0 59496 75600.00000 0 -15866238.512 14386791.355 -13853905.527 10 0 59496 76500.00000 0 -17207275.885 15157284.573 -11169798.476 10 0 59496 77400.00000 0 -18191364.483 15850937.163 -8268678.172 10 0 59496 78300.00000 0 -18817421.298 16410199.940 -5206884.203 10 0 59496 79200.00000 0 -19097174.752 16780261.140 -2043897.958 10 0 59496 80100.00000 0 -19054469.672 16911518.719 1158814.792 10 0 59496 81000.00000 0 -18724075.767 16761849.572 4339001.705 10 0 59496 81900.00000 0 -18150050.420 16298578.885 7434838.322 10 0 59496 82800.00000 0 -17383725.479 15500065.364 10386134.834 10 0 59496 83700.00000 0 -16481403.706 14356834.267 13135511.047 10 0 59496 84600.00000 0 -15501862.831 12872209.252 15629516.117 10 0 59496 85500.00000 0 -14503773.167 11062415.341 17819670.728 10 0 59497 0.00000 0 -13543138.379 8956147.786 19663411.081 10 0 59497 900.00000 0 -12670867.177 6593622.719 21124917.191 10 0 59497 1800.00000 0 -11930579.749 4025151.425 22175807.093 10 0 59497 2700.00000 0 -11356739.582 1309293.227 22795687.102 10 0 59497 3600.00000 0 -10973190.435 -1489333.915 22972545.224 10 0 59497 4500.00000 0 -10792159.161 -4302495.574 22702981.555 10 0 59497 5400.00000 0 -10813766.000 -7060934.673 21992271.356 10 0 59497 6300.00000 0 -11026062.456 -9697009.766 20854259.868 10 0 59497 7200.00000 0 -11405594.728 -12147268.720 19311091.039 10 0 59497 8100.00000 0 -11918468.530 -14354851.557 17392775.480 10 0 59497 9000.00000 0 -12521870.120 -16271623.329 15136605.955 10 0 59497 9900.00000 0 -13165979.142 -17859948.989 12586431.660 10 0 59497 10800.00000 0 -13796192.352 -19094037.274 9791805.249 10 0 59497 11700.00000 0 -14355564.199 -19960798.515 6807019.085 10 0 59497 12600.00000 0 -14787360.994 -20460181.536 3690049.477 10 0 59497 13500.00000 0 -15037620.539 -20604976.700 501429.500 10 0 59497 14400.00000 0 -15057608.819 -20420094.473 -2696927.546 10 0 59497 15300.00000 0 -14806069.651 -19941350.894 -5842930.851 10 0 59497 16200.00000 0 -14251171.915 -19213811.986 -8875517.419 10 0 59497 17100.00000 0 -13372071.714 -18289767.625 -11735836.401 10 0 59497 18000.00000 0 -12160023.106 -17226420.765 -14368389.290 10 0 59497 18900.00000 0 -10618989.984 -16083389.704 -16722103.928 10 0 59497 19800.00000 0 -8765732.586 -14920128.645 -18751321.776 10 0 59497 20700.00000 0 -6629364.172 -13793374.994 -20416679.572 10 0 59497 21600.00000 0 -4250395.337 -12754730.409 -21685868.914 10 0 59497 22500.00000 0 -1679304.727 -11848476.768 -22534259.557 10 0 59497 23400.00000 0 1025305.460 -11109718.252 -22945374.900 10 0 59497 24300.00000 0 3798893.734 -10562926.961 -22911210.900 10 0 59497 25200.00000 0 6573413.868 -10220952.609 -22432392.472 10 0 59497 26100.00000 0 9279899.835 -10084537.492 -21518164.364 10 0 59497 27000.00000 0 11851094.967 -10142356.902 -20186216.459 10 0 59497 27900.00000 0 14224017.262 -10371583.223 -18462346.378 10 0 59497 28800.00000 0 16342354.950 -10738950.157 -16379965.316 10 0 59497 29700.00000 0 18158593.444 -11202272.468 -13979455.906 10 0 59497 30600.00000 0 19635785.580 -11712357.493 -11307393.818 10 0 59497 31500.00000 0 20748891.556 -12215227.967 -8415647.553 10 0 59497 32400.00000 0 21485632.939 -12654562.382 -5360373.441 10 0 59497 33300.00000 0 21846825.161 -12974249.591 -2200925.071 10 0 59497 34200.00000 0 21846174.804 -13120949.266 1001301.519 10 0 59497 35100.00000 0 21509550.531 -13046549.262 4184064.229 10 0 59497 36000.00000 0 20873758.734 -12710415.058 7285489.090 10 0 59497 36900.00000 0 19984875.932 -12081335.130 10245277.973 10 0 59497 37800.00000 0 18896208.794 -11139078.858 13005885.671 10 0 59497 38700.00000 0 17665968.331 -9875499.958 15513642.902 10 0 59497 39600.00000 0 16354756.868 -8295137.702 17719802.800 10 0 59497 40500.00000 0 15022974.186 -6415289.429 19581490.324 10 0 59497 41400.00000 0 13728252.340 -4265550.103 21062536.057 10 0 59497 42300.00000 0 12523027.316 -1886837.279 22134178.240 10 0 59497 43200.00000 0 11452349.535 670058.730 22775619.735 10 0 59497 44100.00000 0 10552024.962 3346339.807 22974429.475 10 0 59497 45000.00000 0 9847164.420 6077403.048 22726780.981 10 0 59497 45900.00000 0 9351201.416 8795290.840 22037523.704 10 0 59497 46800.00000 0 9065418.940 11431286.749 20920086.083 10 0 59497 47700.00000 0 8979004.383 13918549.822 19396212.361 10 0 59497 48600.00000 0 9069629.417 16194678.402 17495538.307 10 0 59497 49500.00000 0 9304529.700 18204097.461 15255013.980 10 0 59497 50400.00000 0 9642038.290 19900170.609 12718184.700 10 0 59497 51300.00000 0 10033507.484 21246949.522 9934343.993 10 0 59497 52200.00000 0 10425537.514 22220488.522 6957574.892 10 0 59497 53100.00000 0 10762417.515 22809670.131 3845698.257 10 0 59497 54000.00000 0 10988675.210 23016507.974 659148.620 10 0 59497 54900.00000 0 11051627.131 22855915.220 -2540200.456 10 0 59497 55800.00000 0 10903821.171 22354949.162 -5690238.345 10 0 59497 56700.00000 0 10505267.805 21551564.569 -8729823.122 10 0 59497 57600.00000 0 9825365.247 20492928.906 -11599967.480 10 0 59497 58500.00000 0 8844436.781 19233370.894 -14244981.654 10 0 59497 59400.00000 0 7554814.819 17832049.025 -16613551.219 10 0 59497 60300.00000 0 5961425.303 16350438.171 -18659729.116 10 0 59497 61200.00000 0 4081847.038 14849739.813 -20343822.972 10 0 59497 62100.00000 0 1945842.414 13388324.271 -21633161.056 10 0 59497 63000.00000 0 -405622.073 12019311.698 -22502722.607 10 0 59497 63900.00000 0 -2921825.804 10788392.641 -22935620.810 10 0 59497 64800.00000 0 -5544155.534 9731978.704 -22923429.571 10 0 59497 65700.00000 0 -8208302.310 8875760.070 -22466347.981 10 0 59497 66600.00000 0 -10846703.745 8233729.605 -21573199.334 10 0 59497 67500.00000 0 -13391131.446 7807713.909 -20261264.518 10 0 59497 68400.00000 0 -15775317.170 7587430.483 -18555952.510 10 0 59497 69300.00000 0 -17937509.370 7551068.398 -16490313.746 10 0 59497 70200.00000 0 -19822854.413 7666367.865 -14104405.057 10 0 59497 71100.00000 0 -21385503.793 7892153.174 -11444517.678 10 0 59497 72000.00000 0 -22590359.527 8180254.372 -8562282.677 10 0 59497 72900.00000 0 -23414385.008 8477736.427 -5513670.695 10 0 59497 73800.00000 0 -23847426.398 8729341.428 -2357905.077 10 0 59497 74700.00000 0 -23892510.122 8880040.174 843690.320 10 0 59497 75600.00000 0 -23565604.026 8877584.494 4028886.067 10 0 59497 76500.00000 0 -22894852.369 8674951.474 7135761.107 10 0 59497 77400.00000 0 -21919317.080 8232575.154 10103911.389 10 0 59497 78300.00000 0 -20687278.624 7520270.154 12875629.062 10 0 59497 79200.00000 0 -19254168.424 6518764.717 15397028.693 10 0 59497 80100.00000 0 -17680220.356 5220777.242 17619098.011 10 0 59497 81000.00000 0 -16027940.510 3631589.690 19498652.535 10 0 59497 81900.00000 0 -14359501.914 1769092.531 20999175.416 10 0 59497 82800.00000 0 -12734173.814 -336701.732 22091526.250 10 0 59497 83700.00000 0 -11205893.364 -2644657.143 22754505.409 10 0 59497 84600.00000 0 -9821081.255 -5103984.201 22975263.295 10 0 59497 85500.00000 0 -8616792.376 -7656120.504 22749546.974 10 0 59498 0.00000 0 -7619278.326 -10236944.313 22081779.865 10 0 59498 900.00000 0 -6843020.625 -12779230.908 20984972.776 10 0 59498 1800.00000 0 -6290275.455 -15215246.587 19480469.167 10 0 59498 2700.00000 0 -5951146.146 -17479377.545 17597528.462 10 0 59498 3600.00000 0 -5804180.665 -19510681.243 15372756.178 10 0 59498 4500.00000 0 -5817467.394 -21255255.813 12849391.606 10 0 59498 5400.00000 0 -5950182.201 -22668328.986 10076466.740 10 0 59498 6300.00000 0 -6154520.722 -23715979.879 7107852.695 10 0 59498 7200.00000 0 -6377933.585 -24376422.158 4001212.169 10 0 59498 8100.00000 0 -6565569.478 -24640795.501 816878.359 10 0 59498 9000.00000 0 -6662822.213 -24513432.849 -2383317.740 10 0 59498 9900.00000 0 -6617873.574 -24011592.845 -5537248.528 10 0 59498 10800.00000 0 -6384123.916 -23164669.385 -8583695.969 10 0 59498 11700.00000 0 -5922407.268 -22012912.044 -11463539.088 10 0 59498 12600.00000 0 -5202896.901 -20605711.618 -14120899.561 10 0 59498 13500.00000 0 -4206620.363 -18999523.145 -16504223.246 10 0 59498 14400.00000 0 -2926519.453 -17255513.669 -18567276.895 10 0 59498 15300.00000 0 -1368009.813 -15437033.385 -20270041.026 10 0 59498 16200.00000 0 450984.358 -13607015.840 -21579482.186 10 0 59498 17100.00000 0 2500523.022 -11825415.467 -22470190.237 10 0 59498 18000.00000 0 4739651.077 -10146789.054 -22924868.802 10 0 59498 18900.00000 0 7117866.768 -8618121.426 -22934669.877 10 0 59498 19800.00000 0 9576997.992 -7276985.293 -22499366.391 10 0 59498 20700.00000 0 12053409.667 -6150111.394 -21627359.410 10 0 59498 21600.00000 0 14480451.689 -5252427.827 -20335519.642 10 0 59498 22500.00000 0 16791046.778 -4586608.064 -18648865.849 10 0 59498 23400.00000 0 18920311.408 -4143145.986 -16600085.784 10 0 59498 24300.00000 0 20808101.371 -3900954.307 -14228908.179 10 0 59498 25200.00000 0 22401376.324 -3828460.817 -11581337.172 10 0 59498 26100.00000 0 23656284.694 -3885156.014 -8708763.404 10 0 59498 27000.00000 0 24539881.837 -4023526.514 -5666968.527 10 0 59498 27900.00000 0 25031409.330 -4191292.213 -2515042.148 10 0 59498 28800.00000 0 25123081.485 -4333852.164 685767.670 10 0 59498 29700.00000 0 24820345.901 -4396835.017 3873247.741 10 0 59498 30600.00000 0 24141606.886 -4328645.264 6985433.331 10 0 59498 31500.00000 0 23117423.355 -4082896.554 9961817.598 10 0 59498 32400.00000 0 21789215.012 -3620628.026 12744532.806 10 0 59498 33300.00000 0 20207531.408 -2912208.750 15279479.683 10 0 59498 34200.00000 0 18429956.927 -1938848.656 17517382.412 10 0 59498 35100.00000 0 16518740.018 -693650.990 19414748.460 10 0 59498 36000.00000 0 14538246.421 817839.207 20934714.489 10 0 59498 36900.00000 0 12552343.359 2577614.749 22047761.964 10 0 59498 37800.00000 0 10621824.234 4555715.992 22732288.855 10 0 59498 38700.00000 0 8801981.371 6711250.207 22975026.734 10 0 59498 39600.00000 0 7140427.895 8993878.846 22771295.514 10 0 59498 40500.00000 0 5675259.074 11345711.390 22125091.335 10 0 59498 41400.00000 0 4433629.057 13703527.540 21049006.146 10 0 59498 42300.00000 0 3430801.483 16001235.614 19563980.736 10 0 59498 43200.00000 0 2669712.421 18172465.291 17698896.063 10 0 59498 44100.00000 0 2141062.662 20153187.053 15490010.711 10 0 59498 45000.00000 0 1823934.224 21884249.440 12980255.342 10 0 59498 45900.00000 0 1686903.882 23313728.553 10218397.647 10 0 59498 46800.00000 0 1689605.689 24398992.007 7258093.932 10 0 59498 47700.00000 0 1784675.607 25108391.238 4156845.762 10 0 59498 48600.00000 0 1919995.255 25422511.708 974882.012 10 0 59498 49500.00000 0 2041139.140 25334928.943 -2226011.829 10 0 59498 50400.00000 0 2093921.312 24852439.067 -5383694.013 10 0 59498 51300.00000 0 2026933.094 23994754.599 -8436873.035 10 0 59498 52200.00000 0 1793964.091 22793678.612 -11326296.629 10 0 59498 53100.00000 0 1356203.677 21291792.281 -13995899.996 10 0 59498 54000.00000 0 684129.493 19540711.079 -16393891.030 10 0 59498 54900.00000 0 -240997.245 17598982.781 -18473751.729 10 0 59498 55800.00000 0 -1426093.245 15529715.255 -20195136.619 10 0 59498 56700.00000 0 -2865715.856 13398032.957 -21524651.363 10 0 59498 57600.00000 0 -4542050.553 11268467.939 -22436496.994 10 0 59498 58500.00000 0 -6425424.751 9202393.665 -22912967.820 10 0 59498 59400.00000 0 -8475327.727 7255607.858 -22944793.864 10 0 59498 60300.00000 0 -10641895.424 5476164.251 -22531321.462 10 0 59498 61200.00000 0 -12867799.509 3902542.731 -21680528.617 10 0 59498 62100.00000 0 -15090463.305 2562233.228 -20408874.599 10 0 59498 63000.00000 0 -17244513.477 1470791.528 -18740986.279 10 0 59498 63900.00000 0 -19264366.218 631405.724 -16709186.660 10 0 59498 64800.00000 0 -21086840.909 34990.663 -14352873.989 10 0 59498 65700.00000 0 -22653692.605 -339194.194 -11717762.692 10 0 59498 66600.00000 0 -23913957.657 -522429.968 -8855000.224 10 0 59498 67500.00000 0 -24826014.305 -554974.125 -5820176.426 10 0 59498 68400.00000 0 -25359271.568 -484113.279 -2672244.326 10 0 59498 69300.00000 0 -25495415.175 -361915.852 527626.593 10 0 59498 70200.00000 0 -25229157.742 -242780.317 3717242.140 10 0 59498 71100.00000 0 -24568461.208 -180883.571 6834596.570 10 0 59498 72000.00000 0 -23534221.800 -227638.356 9819082.827 10 0 59498 72900.00000 0 -22159430.556 -429268.359 12612675.718 10 0 59498 73800.00000 0 -20487844.547 -824604.687 15161064.394 10 0 59498 74700.00000 0 -18572224.695 -1443197.940 17414711.496 10 0 59498 75600.00000 0 -16472214.208 -2303826.711 19329818.127 10 0 59498 76500.00000 0 -14251946.705 -3413466.498 20869175.775 10 0 59498 77400.00000 0 -11977484.294 -4766763.408 22002888.671 10 0 59498 78300.00000 0 -9714192.712 -6346035.769 22708952.855 10 0 59498 79200.00000 0 -7524162.971 -8121804.475 22973681.095 10 0 59498 80100.00000 0 -5463786.781 -10053830.666 22791965.773 10 0 59498 81000.00000 0 -3581586.246 -12092618.064 22167375.078 10 0 59498 81900.00000 0 -1916387.496 -14181317.914 21112080.901 10 0 59498 82800.00000 0 -495913.421 -16257957.464 19646620.012 10 0 59498 83700.00000 0 664146.976 -18257899.481 17799493.243 10 0 59498 84600.00000 0 1560555.110 -20116430.531 15606610.333 10 0 59498 85500.00000 0 2202409.158 -21771370.129 13110591.170 10 0 59499 0.00000 0 2610506.431 -23165591.913 10359937.060 10 0 59499 900.00000 0 2816210.140 -24249352.198 7408086.489 10 0 59499 1800.00000 0 2859868.978 -24982326.751 4312377.511 10 0 59499 2700.00000 0 2788858.067 -25335273.026 1132931.980 10 0 59499 3600.00000 0 2655324.351 -25291246.354 -2068512.841 10 0 59499 4500.00000 0 2513732.768 -24846319.938 -5229803.773 10 0 59499 5400.00000 0 2418317.635 -24009778.460 -8289578.522 10 0 59499 6300.00000 0 2420547.567 -22803777.273 -11188456.157 10 0 59499 7200.00000 0 2566711.566 -21262481.605 -13870187.934 10 0 59499 8100.00000 0 2895728.699 -19430721.909 -16282746.169 10 0 59499 9000.00000 0 3437274.219 -17362221.589 -18379330.269 10 0 59499 9900.00000 0 4210301.564 -15117471.152 -20119270.650 10 0 59499 10800.00000 0 5222022.997 -12761337.197 -21468813.593 10 0 59499 11700.00000 0 6467392.426 -10360505.540 -22401772.387 10 0 59499 12600.00000 0 7929112.931 -7980864.412 -22900032.645 10 0 59499 13500.00000 0 9578169.707 -5684935.874 -22953902.563 10 0 59499 14400.00000 0 11374867.301 -3529461.391 -22562301.582 10 0 59499 15300.00000 0 13270328.997 -1563241.125 -21732783.906 10 0 59499 16200.00000 0 15208397.008 174684.173 -20481396.242 10 0 59499 17100.00000 0 17127855.349 1656433.942 -18832372.076 10 0 59499 18000.00000 0 18964883.575 2866213.713 -16817667.810 10 0 59499 18900.00000 0 20655639.687 3800728.344 -14476349.005 10 0 59499 19800.00000 0 22138864.809 4469066.094 -11853837.826 10 0 59499 20700.00000 0 23358400.793 4892059.025 -9001035.666 10 0 59499 21600.00000 0 24265515.229 5101147.340 -5973337.402 10 0 59499 22500.00000 0 24820936.031 5136796.088 -2829556.125 10 0 59499 23400.00000 0 24996509.599 5046531.684 369220.728 10 0 59499 24300.00000 0 24776412.251 4882681.916 3560821.405 10 0 59499 25200.00000 0 24157863.263 4699915.811 6683202.454 10 0 59499 26100.00000 0 23151308.892 4552688.317 9675659.660 10 0 59499 27000.00000 0 21780069.064 4492698.888 12480013.099 10 0 59499 27900.00000 0 20079461.137 4566472.532 15041742.670 10 0 59499 28800.00000 0 18095437.262 4813166.551 17311051.390 10 0 59499 29700.00000 0 15882792.346 5262696.645 19243835.506 10 0 59499 30600.00000 0 13503017.566 5934262.400 20802542.435 10 0 59499 31500.00000 0 11021889.246 6835335.113 21956899.886 10 0 59499 32400.00000 0 8506893.679 7961151.392 22684502.301 10 0 59499 33300.00000 0 6024595.135 9294734.534 22971243.596 10 0 59499 34200.00000 0 3638056.468 10807443.423 22811588.190 10 0 59499 35100.00000 0 1404419.155 12460026.603 22208675.489 10 0 59499 36000.00000 0 -627257.217 14204137.924 21174256.090 10 0 59499 36900.00000 0 -2417806.968 15984250.817 19728461.129 10 0 59499 37800.00000 0 -3939347.528 17739891.549 17899409.336 10 0 59499 38700.00000 0 -5176189.210 19408098.385 15722659.329 10 0 59499 39600.00000 0 -6125228.925 20926003.963 13240517.688 10 0 59499 40500.00000 0 -6795812.886 22233432.927 10501216.106 10 0 59499 41400.00000 0 -7209075.545 23275406.086 7557973.406 10 0 59499 42300.00000 0 -7396783.934 24004446.046 4467960.726 10 0 59499 43200.00000 0 -7399737.376 24382587.569 1291189.957 10 0 59499 44100.00000 0 -7265791.236 24383008.140 -1910652.809 10 0 59499 45000.00000 0 -7047589.068 23991210.177 -5075405.832 10 0 59499 45900.00000 0 -6800099.856 23205705.126 -8141638.777 10 0 59499 46800.00000 0 -6578065.069 22038170.577 -11049844.609 10 0 59499 47700.00000 0 -6433463.921 20513073.726 -13743592.945 10 0 59499 48600.00000 0 -6413104.335 18666776.761 -16170622.557 10 0 59499 49500.00000 0 -6556441.589 16546161.402 -18283851.984 10 0 59499 50400.00000 0 -6893716.924 14206829.804 -20042288.942 10 0 59499 51300.00000 0 -7444494.806 11710956.497 -21411821.435 10 0 59499 52200.00000 0 -8216660.800 9124880.291 -22365875.791 10 0 59499 53100.00000 0 -9205922.633 6516535.789 -22885929.396 10 0 59499 54000.00000 0 -10395836.100 3952830.433 -22961868.733 10 0 59499 54900.00000 0 -11758355.573 1497075.178 -22592186.077 10 0 59499 55800.00000 0 -13254887.054 -793425.424 -21784011.147 10 0 59499 56700.00000 0 -14837800.763 -2869524.635 -20552976.955 10 0 59499 57600.00000 0 -16452341.110 -4692038.006 -18922922.023 10 0 59499 58500.00000 0 -18038855.104 -6233126.713 -16925434.155 10 0 59499 59400.00000 0 -19535246.787 -7477202.996 -14599243.867 10 0 59499 60300.00000 0 -20879555.495 -8421320.737 -11989478.427 10 0 59499 61200.00000 0 -22012550.147 -9075035.513 -9146790.316 10 0 59499 62100.00000 0 -22880230.696 -9459740.736 -6126376.477 10 0 59499 63000.00000 0 -23436131.390 -9607508.488 -2986907.032 10 0 59499 63900.00000 0 -23643328.394 -9559484.500 210615.669 10 0 59499 64800.00000 0 -23476066.600 -9363905.796 3404045.319 10 0 59499 65700.00000 0 -22920936.262 -9073825.473 6531303.711 10 0 59499 66600.00000 0 -21977549.053 -8744641.682 9531592.311 10 0 59499 67500.00000 0 -20658684.251 -8431536.209 12346579.157 10 0 59499 68400.00000 0 -18989898.155 -8186931.906 14921537.366 10 0 59499 69300.00000 0 -17008612.546 -8058077.396 17206412.509 10 0 59499 70200.00000 0 -14762719.984 -8084861.916 19156797.790 10 0 59499 71100.00000 0 -12308763.944 -8297953.360 20734797.941 10 0 59499 72000.00000 0 -9709769.726 -8717338.678 21909765.083 10 0 59499 72900.00000 0 -7032816.411 -9351328.713 22658892.515 10 0 59499 73800.00000 0 -4346450.781 -10196069.849 22967655.306 10 0 59499 74700.00000 0 -1718050.645 -11235583.418 22830089.491 10 0 59499 75600.00000 0 788753.320 -12442331.591 22248904.906 10 0 59499 76500.00000 0 3116490.636 -13778286.415 21235429.743 10 0 59499 77400.00000 0 5215999.422 -15196457.435 19809388.118 10 0 59499 78300.00000 0 7048221.808 -16642814.169 17998515.023 10 0 59499 79200.00000 0 8585572.782 -18058523.099 15838016.070 10 0 59499 80100.00000 0 9812826.623 -19382405.489 13369882.420 10 0 59499 81000.00000 0 10727485.380 -20553513.051 10642074.048 10 0 59499 81900.00000 0 11339615.419 -21513713.339 7707587.048 10 0 59499 82800.00000 0 11671160.312 -22210176.185 4623423.119 10 0 59499 83700.00000 0 11754760.360 -22597656.548 1449481.286 10 0 59499 84600.00000 0 11632129.738 -22640477.600 -1752606.496 10 0 59499 85500.00000 0 11352060.742 -22314130.362 -4920672.892 99